Le nostre stazioni meteo in Italia

Pubblicità
Il mio iltempo24.it
Palermo/Punta Raisi, Italia (16405): Temperatura & dewpoint: 15.06.2019 00:00:00 - 21.06.2019 00:00:00 (CEST)Palermo/Punta Raisi, Italia (16405): velocità del vento: 15.06.2019 00:00:00 - 21.06.2019 00:00:00 (CEST)Palermo/Punta Raisi, Italia (16405): direzione del vento: 15.06.2019 00:00:00 - 21.06.2019 00:00:00 (CEST)Palermo/Punta Raisi, Italia (16405): reduced air pressure: 15.06.2019 00:00:00 - 21.06.2019 00:00:00 (CEST)Palermo/Punta Raisi, Italia (16405): visibility: 15.06.2019 00:00:00 - 21.06.2019 00:00:00 (CEST)Palermo/Punta Raisi, Italia (16405): precipitazioni: 15.06.2019 00:00:00 - 21.06.2019 00:00:00 (CEST)
Data & Tempo tt [°C] td [°C] ff [km/h] ff [kn] dd ppp [hPa] vv [km] rr [mm]
21.06.2019 00:00:00 22,0 20,0 11 6 NNE - 10 -
20.06.2019 23:00:00 22,4 19,6 2 1 - 1014,0 10 0,0
20.06.2019 22:00:00 23,0 20,0 9 5 SSO - 10 -
20.06.2019 21:00:00 23,0 19,0 8 4 SO - 10 -
20.06.2019 20:00:00 23,1 20,1 9 5 ONO 1013,1 10 -
20.06.2019 19:00:00 24,0 20,0 8 4 O - 10 -
20.06.2019 18:00:00 28,0 18,0 18 10 ENE - 10 -
20.06.2019 17:00:00 27,9 18,5 24 13 ENE 1013,1 10 0,0
20.06.2019 16:00:00 28,0 18,0 31 17 ENE - 10 -
20.06.2019 15:00:00 27,0 19,0 35 19 ENE - 10 -
20.06.2019 14:00:00 27,4 18,6 31 17 ENE 1013,9 10 -
20.06.2019 13:00:00 26,0 19,0 31 17 ENE - 10 -
20.06.2019 12:00:00 26,0 19,0 31 17 ENE - 10 -
20.06.2019 11:00:00 24,5 18,6 24 13 NE 1014,3 10 0,0
20.06.2019 10:00:00 22,0 18,0 9 5 ONO - 10 -
20.06.2019 09:00:00 22,0 17,0 5 3 O - 10 -
20.06.2019 08:00:00 20,6 16,6 4 2 - 1015,1 10 -
20.06.2019 07:00:00 20,0 16,0 2 1 - - 10 -
20.06.2019 06:00:00 18,0 16,0 5 3 E - 10 -
20.06.2019 05:00:00 18,9 14,8 5 3 S 1014,0 10 0,0
20.06.2019 04:00:00 20,0 16,0 4 2 SSE - 10 -
20.06.2019 03:00:00 - - - - - - - -
20.06.2019 02:00:00 20,2 16,7 2 1 - 1014,6 10 -
20.06.2019 01:00:00 21,0 19,0 9 5 ENE - 10 -
20.06.2019 00:00:00 22,0 19,0 9 5 ENE - 10 -
19.06.2019 23:00:00 22,0 19,7 13 7 NE 1014,8 10 0,0
19.06.2019 22:00:00 23,0 19,0 15 8 NE - 10 -
19.06.2019 21:00:00 23,0 20,0 18 10 NE - 10 -
19.06.2019 20:00:00 23,3 19,8 24 13 NE 1013,4 10 -
19.06.2019 19:00:00 25,0 19,0 28 15 ENE - 10 -
19.06.2019 18:00:00 25,0 20,0 26 14 NE - 10 -
19.06.2019 17:00:00 25,3 19,3 28 15 NE 1013,8 10 0,0
19.06.2019 16:00:00 25,0 20,0 24 13 NE - 10 -
19.06.2019 15:00:00 25,0 19,0 28 15 NE - 10 -
19.06.2019 14:00:00 27,2 17,0 24 13 ENE 1014,6 10 -
19.06.2019 13:00:00 24,0 19,0 22 12 NE - 10 -
19.06.2019 12:00:00 24,0 19,0 22 12 NE - 10 -
19.06.2019 11:00:00 24,2 19,1 13 7 NNE 1014,8 10 0,0
19.06.2019 10:00:00 23,0 19,0 8 4 NNO - 10 -
19.06.2019 09:00:00 22,0 19,0 9 5 N - 10 -
19.06.2019 08:00:00 21,5 18,3 4 2 OSO 1014,8 10 -
19.06.2019 07:00:00 20,0 17,0 5 3 SSE - 10 -
19.06.2019 06:00:00 18,0 16,0 5 3 SSE - 10 -
19.06.2019 05:00:00 19,7 17,8 4 2 - 1014,1 10 0,0
19.06.2019 04:00:00 20,0 17,0 2 1 S - 10 -
19.06.2019 03:00:00 20,0 17,0 5 3 S - 10 -
19.06.2019 02:00:00 19,6 17,4 5 3 S 1014,3 10 -
19.06.2019 01:00:00 21,0 19,0 9 5 E - 10 -
19.06.2019 00:00:00 22,0 20,0 16 9 ENE - 10 -
18.06.2019 23:00:00 22,2 20,0 16 9 ENE 1015,3 10 0,0
18.06.2019 22:00:00 23,0 20,0 21 11 ENE - 10 -
18.06.2019 21:00:00 23,0 19,0 21 11 NE - 10 -
18.06.2019 20:00:00 23,1 19,9 21 11 NE 1014,8 10 -
18.06.2019 19:00:00 23,0 20,0 18 10 NE - 10 -
18.06.2019 18:00:00 23,0 21,0 16 9 NNE - 10 -
18.06.2019 17:00:00 23,6 20,2 18 10 NNE 1014,6 10 0,0
18.06.2019 16:00:00 24,0 20,0 18 10 NNE - 10 -
18.06.2019 15:00:00 24,0 20,0 22 12 NE - 10 -
18.06.2019 14:00:00 24,2 20,3 22 12 NNE 1014,9 10 -
18.06.2019 13:00:00 24,0 20,0 24 13 NE - 10 -
18.06.2019 12:00:00 24,0 20,0 24 13 NE - 10 -
18.06.2019 11:00:00 23,0 19,7 22 12 NNE 1014,7 10 0,0
18.06.2019 10:00:00 23,0 20,0 22 12 NE - 10 -
18.06.2019 09:00:00 23,0 20,0 22 12 NE - 10 -
18.06.2019 08:00:00 22,8 19,8 16 9 ENE 1014,2 10 -
18.06.2019 07:00:00 22,0 20,0 15 8 ENE - 10 -
18.06.2019 06:00:00 21,0 19,0 13 7 NE - 10 -
18.06.2019 05:00:00 20,6 19,3 11 6 ENE 1013,2 10 0,0
18.06.2019 04:00:00 21,0 20,0 8 4 NE - 10 -
18.06.2019 03:00:00 22,0 20,0 4 2 - - 10 -
18.06.2019 02:00:00 22,0 19,6 9 5 ENE 1014,0 10 -
18.06.2019 01:00:00 22,0 19,0 13 7 ENE - 10 -
18.06.2019 00:00:00 23,0 19,0 11 6 E - 10 -
17.06.2019 23:00:00 22,9 19,6 22 12 ENE 1013,3 10 0,0
17.06.2019 22:00:00 23,0 20,0 21 11 ENE - 10 -
17.06.2019 21:00:00 23,0 21,0 22 12 ENE - 10 -
17.06.2019 20:00:00 23,6 19,7 26 14 NE 1012,6 10 -
17.06.2019 19:00:00 24,0 20,0 24 13 NE - 10 -
17.06.2019 18:00:00 24,0 21,0 22 12 NE - 10 -
17.06.2019 17:00:00 23,2 20,7 24 13 NNE 1013,4 10 0,0
17.06.2019 16:00:00 24,0 21,0 22 12 NE - 10 -
17.06.2019 15:00:00 24,0 21,0 26 14 NE - 10 -
17.06.2019 14:00:00 24,7 20,5 28 15 NE 1013,5 10 -
17.06.2019 13:00:00 24,0 20,0 26 14 NE - 10 -
17.06.2019 12:00:00 25,0 20,0 28 15 NE - 10 -
17.06.2019 11:00:00 23,2 20,0 26 14 NE 1014,1 10 0,0
17.06.2019 10:00:00 23,0 20,0 26 14 NE - 10 -
17.06.2019 09:00:00 23,0 19,0 21 11 NE - 10 -
17.06.2019 08:00:00 22,6 18,9 15 8 ENE 1013,6 10 -
17.06.2019 07:00:00 22,0 18,0 18 10 E - 10 -
17.06.2019 06:00:00 21,0 19,0 4 2 - - 8 -
17.06.2019 05:00:00 21,2 18,7 15 8 E 1013,4 10 0,0
17.06.2019 04:00:00 22,0 20,0 21 11 ENE - 10 -
17.06.2019 03:00:00 21,0 20,0 13 7 ESE - 10 -
17.06.2019 02:00:00 21,0 19,6 13 7 ONO 1014,0 8 -
17.06.2019 01:00:00 22,0 20,0 11 6 SO - 10 -
17.06.2019 00:00:00 22,0 21,0 8 4 E - 8 -
16.06.2019 23:00:00 22,4 21,0 16 9 E 1014,3 10 0,0
16.06.2019 22:00:00 23,0 20,0 11 6 E - 10 -
16.06.2019 21:00:00 23,0 21,0 24 13 E - 10 -
16.06.2019 20:00:00 23,5 21,0 28 15 ENE 1013,6 10 -
16.06.2019 19:00:00 24,0 21,0 34 18 NE - 10 -
16.06.2019 18:00:00 25,0 21,0 34 18 NE - 10 -
16.06.2019 17:00:00 24,5 21,0 34 18 NE 1014,2 10 0,0
16.06.2019 16:00:00 25,0 21,0 34 18 NE - 10 -
16.06.2019 15:00:00 24,0 21,0 31 17 NE - 10 -
16.06.2019 14:00:00 23,9 20,4 31 17 NE 1015,4 10 -
16.06.2019 13:00:00 24,0 20,0 29 16 NE - 10 -
16.06.2019 12:00:00 23,0 20,0 28 15 NE - 10 -
16.06.2019 11:00:00 23,0 20,1 21 11 NNE 1016,0 10 0,0
16.06.2019 10:00:00 22,0 20,0 18 10 NNE - 10 -
16.06.2019 09:00:00 22,0 20,0 18 10 NE - 7 -
16.06.2019 08:00:00 21,6 19,9 21 11 NE 1015,5 7 -
16.06.2019 07:00:00 21,0 20,0 13 7 NE - 6 -
16.06.2019 06:00:00 21,0 20,0 8 4 NE - 5 -
16.06.2019 05:00:00 21,6 19,9 13 7 NNE 1015,1 8 0,0
16.06.2019 04:00:00 22,0 20,0 8 4 NNE - 10 -
16.06.2019 03:00:00 22,0 20,0 5 3 N - 10 -
16.06.2019 02:00:00 21,6 20,0 2 1 - 1015,9 10 -
16.06.2019 01:00:00 22,0 20,0 4 2 - - 8 -
16.06.2019 00:00:00 22,0 20,0 8 4 ONO - 10 -
15.06.2019 23:00:00 21,7 20,3 15 8 SSO 1015,8 10 0,0
15.06.2019 22:00:00 21,0 20,0 5 3 ESE - 10 -
15.06.2019 21:00:00 22,0 20,0 4 2 - - 10 -
15.06.2019 20:00:00 22,1 20,2 8 4 N 1015,2 10 -
15.06.2019 19:00:00 23,0 20,0 5 3 NNO - 10 -
15.06.2019 18:00:00 23,0 21,0 13 7 NO - 10 -
15.06.2019 17:00:00 22,8 20,3 13 7 NO 1015,3 10 0,0
15.06.2019 16:00:00 23,0 20,0 15 8 NO - 10 -
15.06.2019 15:00:00 24,0 20,0 9 5 NO - 10 -
15.06.2019 14:00:00 23,2 19,8 9 5 NNO 1016,1 8 -
15.06.2019 13:00:00 23,0 20,0 9 5 N - 8 -
15.06.2019 12:00:00 23,0 20,0 15 8 NO - 8 -
15.06.2019 11:00:00 22,3 19,7 15 8 NO 1016,0 9 0,0
15.06.2019 10:00:00 22,0 20,0 13 7 ONO - 9 -
15.06.2019 09:00:00 23,0 20,0 2 1 - - 10 -
15.06.2019 08:00:00 22,4 20,4 9 5 NNE 1015,8 10 -
15.06.2019 07:00:00 22,0 18,0 4 2 - - 10 -
15.06.2019 06:00:00 22,0 18,0 9 5 E - 10 -
15.06.2019 05:00:00 21,5 20,0 9 5 NE 1015,7 10 0,0
15.06.2019 04:00:00 22,0 20,0 5 3 N - 10 -
15.06.2019 03:00:00 24,0 18,0 4 2 - - 10 -
15.06.2019 02:00:00 24,6 18,4 29 16 O 1016,4 10 -
15.06.2019 01:00:00 26,0 17,0 21 11 ENE - 10 -
15.06.2019 00:00:00 26,0 16,0 13 7 S - 10 -

tt = Temperatura
td = dewpoint
ff = velocità del vento
dd = direzione del vento
ppp = reduced air pressure
vv = visibility
rr = precipitazioni

Stazioni seguenti

WeatherPro
AMSI
MeteoEarth